When you browse on this site, cookies collect data to enhance your experience and personalize the content and advertising you see.
Visit our Privacy Policy to learn more. By continuing to use the site, you agree to this use of cookies and data.
  • In Romania
  • List of Countries
  • For 7 days
  • Water Temperature
  • Satellite Maps
  • Weather Map
  • Weather Widgets
  • user-avatar
    Login

    Hourly Weather Perevalnyy

    Today, 23 April, Tuesday

    Time Temperature Precipitation Wind Pressure Humidity
    00:00 +3°C° 0 mm 4 mps 731 mmHg 82%
    01:00 +2°C° 0 mm 3 mps 731 mmHg 84%
    02:00 +2°C° 0 mm 3 mps 732 mmHg 86%
    03:00 +2°C° 0 mm 2 mps 732 mmHg 88%
    04:00 +2°C° 0 mm 2 mps 732 mmHg 87%
    05:00 +2°C° 0 mm 2 mps 732 mmHg 86%
    06:00 +2°C° 0 mm 2 mps 733 mmHg 84%
    07:00 +5°C° 0 mm 2 mps 733 mmHg 72%
    08:00 +7°C° 0 mm 3 mps 733 mmHg 59%
    09:00 +8°C° 0 mm 4 mps 733 mmHg 46%
    10:00 +10°C° 0 mm 4 mps 733 mmHg 43%
    11:00 +12°C° 0 mm 4 mps 734 mmHg 40%
    12:00 +13°C° 0 mm 5 mps 734 mmHg 37%
    13:00 +13°C° 0 mm 4 mps 734 mmHg 37%
    14:00 +14°C° 0 mm 4 mps 734 mmHg 37%
    15:00 +14°C° 0 mm 4 mps 734 mmHg 36%
    16:00 +13°C° 0 mm 3 mps 734 mmHg 40%
    17:00 +14°C° 0 mm 2 mps 734 mmHg 44%
    18:00 +13°C° 0 mm 2 mps 734 mmHg 48%
    19:00 +12°C° 0 mm 1 mps 734 mmHg 49%
    20:00 +10°C° 0 mm 1 mps 735 mmHg 51%
    21:00 +9°C° 0 mm 1 mps 735 mmHg 53%
    22:00 +8°C° 0 mm 1 mps 735 mmHg 55%
    23:00 +8°C° 0 mm 1 mps 735 mmHg 57%

    Tomorrow, 24 April, Wednesday

    Time Temperature Precipitation Wind Pressure Humidity
    00:00 +7°C° 0 mm 1 mps 735 mmHg 58%
    01:00 +6°C° 0 mm 2 mps 735 mmHg 60%
    02:00 +6°C° 0 mm 2 mps 735 mmHg 61%
    03:00 +5°C° 0 mm 2 mps 735 mmHg 62%
    04:00 +5°C° 0 mm 2 mps 735 mmHg 63%
    05:00 +5°C° 0 mm 2 mps 735 mmHg 64%
    06:00 +5°C° 0 mm 2 mps 735 mmHg 65%
    07:00 +8°C° 0 mm 2 mps 735 mmHg 59%
    08:00 +10°C° 0 mm 3 mps 735 mmHg 53%
    09:00 +13°C° 0 mm 3 mps 735 mmHg 47%
    10:00 +14°C° 0 mm 3 mps 735 mmHg 45%
    11:00 +14°C° 0 mm 3 mps 735 mmHg 43%
    12:00 +15°C° 0 mm 4 mps 735 mmHg 41%
    13:00 +15°C° 0 mm 4 mps 735 mmHg 42%
    14:00 +15°C° 0 mm 4 mps 734 mmHg 43%
    15:00 +17°C° 0 mm 4 mps 734 mmHg 44%
    16:00 +15°C° 0 mm 4 mps 734 mmHg 48%
    17:00 +14°C° 0 mm 3 mps 734 mmHg 53%
    18:00 +14°C° 0 mm 3 mps 734 mmHg 58%
    19:00 +12°C° 0 mm 3 mps 734 mmHg 62%
    20:00 +12°C° 0 mm 2 mps 734 mmHg 66%
    21:00 +9°C° 0 mm 2 mps 735 mmHg 69%
    22:00 +9°C° 0 mm 2 mps 735 mmHg 69%
    23:00 +9°C° 0 mm 2 mps 735 mmHg 69%

    Day after tomorrow, 25 April, Thursday

    Time Temperature Precipitation Wind Pressure Humidity
    00:00 +9°C° 0 mm 2 mps 735 mmHg 70%
    01:00 +8°C° 0 mm 2 mps 734 mmHg 70%
    02:00 +8°C° 0 mm 3 mps 734 mmHg 71%
    03:00 +7°C° 0 mm 3 mps 734 mmHg 72%
    04:00 +8°C° 0 mm 3 mps 734 mmHg 71%
    05:00 +8°C° 0 mm 3 mps 734 mmHg 69%
    06:00 +8°C° 0 mm 3 mps 734 mmHg 67%
    07:00 +10°C° 0 mm 3 mps 734 mmHg 64%
    08:00 +12°C° 0 mm 4 mps 734 mmHg 61%
    09:00 +13°C° 0 mm 4 mps 734 mmHg 59%
    10:00 +14°C° 0 mm 4 mps 734 mmHg 55%
    11:00 +17°C° 0 mm 3 mps 734 mmHg 52%
    12:00 +18°C° 0 mm 3 mps 734 mmHg 49%
    13:00 +18°C° 0.1 mm 3 mps 734 mmHg 49%
    14:00 +18°C° 0.1 mm 3 mps 734 mmHg 49%
    15:00 +19°C° 0.1 mm 3 mps 733 mmHg 49%
    16:00 +18°C° 0.1 mm 3 mps 733 mmHg 53%
    17:00 +18°C° 0.1 mm 2 mps 733 mmHg 57%
    18:00 +17°C° 0.1 mm 2 mps 733 mmHg 61%
    19:00 +15°C° 0 mm 2 mps 733 mmHg 65%
    20:00 +14°C° 0 mm 1 mps 733 mmHg 69%
    21:00 +12°C° 0 mm 1 mps 734 mmHg 73%
    22:00 +12°C° 0 mm 1 mps 733 mmHg 75%
    23:00 +11°C° 0 mm 1 mps 733 mmHg 76%

    26 April, Friday

    Time Temperature Precipitation Wind Pressure Humidity
    00:00 +11°C° 0 mm 1 mps 733 mmHg 78%
    01:00 +11°C° 0 mm 1 mps 733 mmHg 78%
    02:00 +9°C° 0 mm 0 mps 733 mmHg 79%
    03:00 +9°C° 0 mm 0 mps 732 mmHg 79%
    04:00 +9°C° 0 mm 0 mps 732 mmHg 78%
    05:00 +9°C° 0 mm 0 mps 732 mmHg 78%
    06:00 +9°C° 0 mm 0 mps 733 mmHg 77%
    07:00 +13°C° 0 mm 1 mps 732 mmHg 70%
    08:00 +15°C° 0 mm 1 mps 732 mmHg 62%
    09:00 +17°C° 0 mm 2 mps 732 mmHg 55%
    10:00 +18°C° 0 mm 3 mps 732 mmHg 52%
    11:00 +19°C° 0 mm 4 mps 732 mmHg 48%
    12:00 +20°C° 0 mm 5 mps 732 mmHg 45%
    13:00 +20°C° 0 mm 5 mps 731 mmHg 45%
    14:00 +20°C° 0 mm 5 mps 731 mmHg 45%
    15:00 +20°C° 0 mm 5 mps 731 mmHg 45%
    16:00 +20°C° 0 mm 5 mps 731 mmHg 49%
    17:00 +19°C° 0 mm 4 mps 731 mmHg 54%
    18:00 +18°C° 0 mm 4 mps 731 mmHg 58%
    19:00 +16°C° 0 mm 3 mps 731 mmHg 61%
    20:00 +14°C° 0 mm 3 mps 731 mmHg 64%
    21:00 +12°C° 0 mm 3 mps 731 mmHg 68%
    22:00 +12°C° 0 mm 3 mps 731 mmHg 69%
    23:00 +12°C° 0 mm 2 mps 731 mmHg 70%

    27 April, Saturday

    Time Temperature Precipitation Wind Pressure Humidity
    00:00 +10°C° 0 mm 2 mps 731 mmHg 71%
    01:00 +10°C° 0 mm 2 mps 731 mmHg 72%
    02:00 +10°C° 0 mm 2 mps 730 mmHg 73%
    03:00 +9°C° 0 mm 2 mps 730 mmHg 73%
    04:00 +9°C° 0 mm 2 mps 730 mmHg 73%
    05:00 +9°C° 0 mm 2 mps 730 mmHg 73%
    06:00 +9°C° 0 mm 2 mps 730 mmHg 73%
    07:00 +12°C° 0 mm 3 mps 730 mmHg 64%
    08:00 +14°C° 0 mm 5 mps 730 mmHg 54%
    09:00 +16°C° 0 mm 6 mps 730 mmHg 45%
    10:00 +17°C° 0 mm 6 mps 730 mmHg 44%
    11:00 +19°C° 0 mm 6 mps 730 mmHg 43%
    12:00 +20°C° 0 mm 6 mps 729 mmHg 41%
    13:00 +20°C° 0 mm 6 mps 729 mmHg 42%
    14:00 +20°C° 0 mm 6 mps 729 mmHg 43%
    15:00 +21°C° 0 mm 6 mps 729 mmHg 43%
    16:00 +20°C° 0 mm 5 mps 728 mmHg 48%
    17:00 +19°C° 0 mm 4 mps 728 mmHg 53%
    18:00 +18°C° 0 mm 4 mps 728 mmHg 58%
    19:00 +17°C° 0 mm 4 mps 728 mmHg 61%
    20:00 +14°C° 0 mm 3 mps 729 mmHg 65%
    21:00 +12°C° 0 mm 3 mps 729 mmHg 68%
    22:00 +11°C° 0 mm 3 mps 728 mmHg 69%
    23:00 +10°C° 0 mm 3 mps 728 mmHg 69%

    28 April, Sunday

    Time Temperature Precipitation Wind Pressure Humidity
    00:00 +9°C° 0 mm 2 mps 728 mmHg 70%
    01:00 +9°C° 0 mm 2 mps 728 mmHg 70%
    02:00 +9°C° 0 mm 1 mps 728 mmHg 71%
    03:00 +9°C° 0 mm 1 mps 727 mmHg 71%
    04:00 +9°C° 0 mm 1 mps 727 mmHg 72%
    05:00 +8°C° 0 mm 0 mps 728 mmHg 72%
    06:00 +8°C° 0 mm 0 mps 728 mmHg 72%
    07:00 +11°C° 0 mm 0 mps 728 mmHg 66%
    08:00 +14°C° 0 mm 1 mps 728 mmHg 60%
    09:00 +16°C° 0 mm 1 mps 728 mmHg 54%
    10:00 +19°C° 0 mm 1 mps 727 mmHg 51%
    11:00 +20°C° 0 mm 1 mps 727 mmHg 48%
    12:00 +21°C° 0 mm 2 mps 727 mmHg 46%
    13:00 +21°C° 0 mm 2 mps 727 mmHg 44%
    14:00 +21°C° 0 mm 2 mps 727 mmHg 43%
    15:00 +23°C° 0 mm 2 mps 727 mmHg 41%
    16:00 +21°C° 0 mm 2 mps 727 mmHg 46%
    17:00 +21°C° 0 mm 2 mps 727 mmHg 50%
    18:00 +20°C° 0 mm 2 mps 727 mmHg 55%
    19:00 +18°C° 0 mm 2 mps 727 mmHg 60%
    20:00 +16°C° 0 mm 1 mps 727 mmHg 66%
    21:00 +14°C° 0 mm 1 mps 727 mmHg 71%
    22:00 +14°C° 0 mm 1 mps 727 mmHg 73%
    23:00 +13°C° 0 mm 1 mps 727 mmHg 75%
    Show more